Weather History for KBHM - August, 2013

Change the Weather History Date:

Monday, August 5, 2013

  Actual Average Record
Temperature  
Mean Temperature 79 °F 81 °F  
Max Temperature 87 °F 91 °F 102 °F (1947)
Min Temperature 71 °F 72 °F 59 °F (1950)
Cooling Degree Days 14 16  
Month to date cooling degree days 69 80  
Year to date cooling degree days 1171 1243  
Since 1 June cooling degree days 906 961  
Growing Degree Days 29 (Base 50)    
Moisture  
Dew Point 67 °F    
Average Humidity 72    
Maximum Humidity 93    
Minimum Humidity 50    
Precipitation  
Precipitation 0.00 in 0.14 in 1.49 in (1941)
Month to date precipitation 0.79 0.70  
Year to date precipitation 48.76 33.85  
Sea Level Pressure  
Sea Level Pressure 30.03 in    
Wind  
Wind Speed 2 mph (NNE)    
Max Wind Speed 12 mph    
Max Gust Speed 15 mph    
Visibility 10 miles    
Events      
T = Trace of Precipitation, MM = Missing Value Source: NWS Daily Summary

Daily Weather History Graph

Daily Weather History Graph

Search for Another Location

Airport or City:

Trip Planner

Search our weather history database for the weather conditions in past years. The results will help you decide how hot, cold, wet, or windy it might be!

Date:

Astronomy

Aug. 05, 2013 Rise Set
Actual Time 6:02 AM CDT 7:43 PM CDT
Civil Twilight 5:35 AM CDT 8:09 PM CDT
Nautical Twilight 5:02 AM CDT 8:42 PM CDT
Astronomical Twilight 4:28 AM CDT 9:16 PM CDT
Moon 4:56 AM CDT (8/5) 6:45 PM CDT (8/5)
Length of Visible Light 14h 34m
Length of Day
13h 40m
Waning Crescent, 1% of the Moon is Illuminated
Aug 5
Waning Crescent
Aug 6
New
Aug 14
First Quarter
Aug 20
Full
Aug 28
Last Quarter

Hourly Weather History & Observations

Time (CDT) Temp. Heat Index Dew Point Humidity Pressure Visibility Wind Dir Wind Speed Gust Speed Precip Events Conditions
12:53 AM 72.0 °F - 70.0 °F 93% 30.05 in 8.0 mi NNE 3.5 mph - N/A   Clear
1:53 AM 72.0 °F - 68.0 °F 87% 30.03 in 9.0 mi Calm Calm - N/A   Clear
2:53 AM 73.0 °F - 68.0 °F 84% 30.02 in 10.0 mi Calm Calm - N/A   Clear
3:53 AM 73.0 °F - 66.9 °F 81% 30.02 in 10.0 mi Calm Calm - N/A   Clear
4:53 AM 72.0 °F - 68.0 °F 87% 30.04 in 8.0 mi Calm Calm - N/A   Clear
5:53 AM 71.1 °F - 68.0 °F 90% 30.05 in 9.0 mi Calm Calm - N/A   Partly Cloudy
6:53 AM 72.0 °F - 68.0 °F 87% 30.06 in 9.0 mi Calm Calm - N/A   Clear
7:53 AM 73.9 °F - 64.9 °F 73% 30.07 in 10.0 mi Calm Calm - N/A   Clear
8:53 AM 75.9 °F - 64.0 °F 67% 30.07 in 10.0 mi East 3.5 mph - N/A   Clear
9:53 AM 79.0 °F - 64.9 °F 62% 30.08 in 10.0 mi ENE 3.5 mph - N/A   Clear
10:53 AM 80.1 °F 81.9 °F 64.9 °F 60% 30.07 in 10.0 mi Calm Calm - N/A   Clear
11:53 AM 82.9 °F 84.4 °F 64.0 °F 53% 30.06 in 10.0 mi Calm Calm - N/A   Clear
12:53 PM 84.9 °F 88.2 °F 68.0 °F 57% 30.05 in 10.0 mi Variable 5.8 mph - N/A   Partly Cloudy
1:53 PM 87.1 °F 89.9 °F 66.9 °F 51% 30.04 in 10.0 mi North 6.9 mph - N/A   Clear
2:53 PM 86.0 °F 88.8 °F 66.9 °F 53% 30.02 in 10.0 mi North 8.1 mph - N/A   Scattered Clouds
3:53 PM 87.1 °F 90.6 °F 68.0 °F 53% 30.00 in 10.0 mi NNE 6.9 mph - N/A   Partly Cloudy
4:53 PM 86.0 °F 88.8 °F 66.9 °F 53% 29.99 in 10.0 mi North 4.6 mph - N/A   Partly Cloudy
5:53 PM 84.0 °F 87.0 °F 68.0 °F 58% 30.01 in 10.0 mi North 4.6 mph - N/A   Scattered Clouds
6:53 PM 82.0 °F 85.9 °F 70.0 °F 67% 30.01 in 10.0 mi North 4.6 mph - N/A   Scattered Clouds
7:53 PM 81.0 °F 84.1 °F 69.1 °F 67% 30.01 in 10.0 mi Calm Calm - N/A   Clear
8:53 PM 79.0 °F - 70.0 °F 74% 30.01 in 10.0 mi Calm Calm - N/A   Clear
9:53 PM 79.0 °F - 68.0 °F 69% 29.99 in 10.0 mi Calm Calm - N/A   Mostly Cloudy
10:53 PM 77.0 °F - 68.0 °F 74% 30.00 in 10.0 mi North 3.5 mph - N/A   Clear
11:53 PM 78.1 °F - 66.9 °F 68% 29.99 in 10.0 mi Calm Calm - N/A   Clear